WetterOnline ( http://www.wetteronline.de )

Wetter aktuell Alfeld

Aktuelles Wetter: Alfeld (148m)

6-stündlich | Neueste Meldungen
Ortszeit Temperatur Wetter
Di, 16.10. 20:00 14.1° C leicht bewölkt
Di, 16.10. 14:00 20.2° C bewölkt
Di, 16.10. 8:00 8.3° C wolkig
Di, 16.10. 2:00 10.4° C wolkenlos
Mo, 15.10. 20:00 15.5° C leicht bewölkt
Mo, 15.10. 14:00 23.6° C wolkenlos
Mo, 15.10. 8:00 10.8° C wolkenlos
Mo, 15.10. 2:00 13.6° C wolkenlos
Ortszeit Temperatur Wetter
Mi, 17.10. 0:00 12.0° C wolkig
Di, 16.10. 23:50 12.0° C wolkig
Di, 16.10. 23:40 12.2° C bewölkt
Di, 16.10. 23:30 12.0° C bedeckt
Di, 16.10. 23:20 12.0° C bedeckt
Di, 16.10. 23:10 12.1° C wolkig
Di, 16.10. 23:00 12.5° C bewölkt
Di, 16.10. 22:30 12.2° C bewölkt
Di, 16.10. 22:00 12.6° C wolkig
Di, 16.10. 21:30 12.5° C wolkig
Di, 16.10. 21:00 12.9° C leicht bewölkt
Ortszeit Relative Feuchte Sichtweite
Di, 16.10. 20:00 85% 23 km
Di, 16.10. 14:00 60% 29 km
Di, 16.10. 8:00 93% 10 km
Di, 16.10. 2:00 86% 19 km
Mo, 15.10. 20:00 68% 35 km
Mo, 15.10. 14:00 38% 28 km
Mo, 15.10. 8:00 78% 17 km
Mo, 15.10. 2:00 70% 24 km
Ortszeit Relative Feuchte Sichtweite
Mi, 17.10. 0:00 92% 11 km
Di, 16.10. 23:50 92% -
Di, 16.10. 23:40 94% -
Di, 16.10. 23:30 91% 10 km
Di, 16.10. 23:20 91% -
Di, 16.10. 23:10 92% -
Di, 16.10. 23:00 93% 15 km
Di, 16.10. 22:30 94% 12 km
Di, 16.10. 22:00 94% 12 km
Di, 16.10. 21:30 92% 15 km
Di, 16.10. 21:00 91% 16 km
Ortszeit Niederschlagsmenge Niederschlagsart
Di, 16.10. 20:00 0.0 l/m2 in 12 Std. -
Di, 16.10. 14:00 0.0 l/m2 in 6 Std. -
Di, 16.10. 8:00 0.0 l/m2 in 12 Std. -
Di, 16.10. 2:00 0.0 l/m2 in 6 Std. -
Mo, 15.10. 20:00 0.0 l/m2 in 12 Std. -
Mo, 15.10. 14:00 0.0 l/m2 in 6 Std. -
Mo, 15.10. 8:00 0.0 l/m2 in 12 Std. -
Mo, 15.10. 2:00 0.0 l/m2 in 6 Std. -
Ortszeit Niederschlagsmenge Niederschlagsart
Mi, 17.10. 0:00 0.1 l/m2 in 1 Std. Regen
Di, 16.10. 23:50 keine Meldung -
Di, 16.10. 23:40 keine Meldung -
Di, 16.10. 23:30 0.0 l/m2 in 1 Std. -
Di, 16.10. 23:20 keine Meldung -
Di, 16.10. 23:10 keine Meldung -
Di, 16.10. 23:00 0.0 l/m2 in 1 Std. -
Di, 16.10. 22:30 0.0 l/m2 in 1 Std. -
Di, 16.10. 22:00 0.0 l/m2 in 1 Std. -
Di, 16.10. 21:30 0.0 l/m2 in 1 Std. -
Di, 16.10. 21:00 0.0 l/m2 in 1 Std. -
Ortszeit Stärke Spitze Richtung
km/h Bft. km/h Grad Sektor
Di, 16.10. 20:00 4 1 18 220° SW
Di, 16.10. 14:00 4 1 14 250° W
Di, 16.10. 8:00 7 2 14 160° S
Di, 16.10. 2:00 6 1 17 160° S
Mo, 15.10. 20:00 0 0 14 - -
Mo, 15.10. 14:00 11 2 19 120° SO
Mo, 15.10. 8:00 11 2 14 120° SO
Mo, 15.10. 2:00 7 2 25 130° SO
Ortszeit Stärke Spitze Richtung
km/h Bft. km/h Grad Sektor
Mi, 17.10. 0:00 4 1 11 130° SO
Di, 16.10. 23:50 4 1 - 130° SO
Di, 16.10. 23:40 2 1 - 150° SO
Di, 16.10. 23:30 6 1 9 110° O
Di, 16.10. 23:20 6 1 - 110° O
Di, 16.10. 23:10 7 2 - 120° SO
Di, 16.10. 23:00 4 1 7 150° SO
Di, 16.10. 22:30 0 0 4 - -
Di, 16.10. 22:00 0 0 4 - -
Di, 16.10. 21:30 2 1 4 310° NW
Di, 16.10. 21:00 0 0 4 - -
Ortszeit Untergrenze Bedeckung Gattung
total tief tief mittel hoch
Di, 16.10. 20:00 2400 m 3/8 3/8 - - -
Di, 16.10. 14:00 3900 m 7/8 7/8 - - -
Di, 16.10. 8:00 4200 m 6/8 6/8 - - -
Di, 16.10. 2:00 - 0/8 0/8 - - -
Mo, 15.10. 20:00 3600 m 3/8 3/8 - - -
Mo, 15.10. 14:00 - 0/8 0/8 - - -
Mo, 15.10. 8:00 - 0/8 0/8 - - -
Mo, 15.10. 2:00 - 0/8 0/8 - - -
Ortszeit Bedeckungsgrad in Achtel und Wolkenuntergrenze
Mi, 17.10. 0:00 5(2700m) 7(3300m)
Di, 16.10. 23:50 5(2700m) 7(3300m)
Di, 16.10. 23:40 7(2700m) 7(3600m)
Di, 16.10. 23:30 7(3000m) 8(3600m) 8(3600m)
Di, 16.10. 23:20 7(3000m) 8(3600m)
Di, 16.10. 23:10 1(2400m) 8(3600m)
Di, 16.10. 23:00 7(3300m) 7(3900m)
Di, 16.10. 22:30 7(3000m)
Di, 16.10. 22:00 6(3000m)
Di, 16.10. 21:30 5(3000m)
Di, 16.10. 21:00 3(2700m)
Ortszeit Luftdruck NN (hPa) Tendenz (hPa in 3 Std.)
Di, 16.10. 20:00 1020 + 0,4
Di, 16.10. 14:00 1019 0,0
Di, 16.10. 8:00 1019 + 1,0
Di, 16.10. 2:00 1017 + 0,7
Mo, 15.10. 20:00 1015 + 1,4
Mo, 15.10. 14:00 1014 - 0,4
Mo, 15.10. 8:00 1014 + 0,8
Mo, 15.10. 2:00 1013 + 0,3
Ortszeit Luftdruck NN (hPa) Tendenz (hPa in 3 Std.)
Mi, 17.10. 0:00 1021 + 0,2
Di, 16.10. 23:50 1021 keine Meldung
Di, 16.10. 23:40 1021 keine Meldung
Di, 16.10. 23:30 1021 + 0,4
Di, 16.10. 23:20 1021 keine Meldung
Di, 16.10. 23:10 1021 keine Meldung
Di, 16.10. 23:00 1020 + 0,4
Di, 16.10. 22:30 1021 + 0,5
Di, 16.10. 22:00 1020 + 0,3
Di, 16.10. 21:30 1020 + 0,4
Di, 16.10. 21:00 1020 + 0,5
Ortszeit Schneehöhe (cm)
Di, 16.10. 20:00 0
Di, 16.10. 14:00 0
Di, 16.10. 8:00 0
Di, 16.10. 2:00 0
Mo, 15.10. 20:00 0
Mo, 15.10. 14:00 0
Mo, 15.10. 8:00 0
Mo, 15.10. 2:00 0
Ortszeit Schneehöhe (cm)
Mi, 17.10. 0:00 0
Di, 16.10. 23:50 0
Di, 16.10. 23:40 0
Di, 16.10. 23:30 0
Di, 16.10. 23:20 0
Di, 16.10. 23:10 0
Di, 16.10. 23:00 0
Di, 16.10. 22:30 0
Di, 16.10. 22:00 0
Di, 16.10. 21:30 0
Di, 16.10. 21:00 0
Link zu dieser Seite / Seite empfehlen

Das Wetter in ...